Weather reports worldwide

Advertisment
Braemar, United Kingdom (99089): temperature & dewpoint: 14.10.2020 16:00:00 - 20.10.2020 16:00:00 (BST)Braemar, United Kingdom (99089): temperature -20cm & temperature -100cm: 14.10.2020 16:00:00 - 20.10.2020 16:00:00 (BST)Braemar, United Kingdom (99089): precipitation: 14.10.2020 16:00:00 - 20.10.2020 16:00:00 (BST)
Date & Time tt [°C] td [°C] tt -20cm [°C] tt -100cm [°C] rr [mm]
20.10.2020 16:00:00 - - - - -
20.10.2020 15:00:00 10,6 7,8 - - 0,0
20.10.2020 14:00:00 10,5 7,9 - - 0,0
20.10.2020 13:00:00 10,0 7,4 - - 0,0
20.10.2020 12:00:00 9,2 7,6 - - 0,0
20.10.2020 11:00:00 8,4 7,7 - - 0,0
20.10.2020 10:00:00 8,6 7,3 8,0 9,0 0,0
20.10.2020 09:00:00 8,3 7,4 - - 0,0
20.10.2020 08:00:00 8,3 7,8 - - 0,6
20.10.2020 07:00:00 8,1 7,9 - - 0,4
20.10.2020 06:00:00 7,9 7,6 - - 0,0
20.10.2020 05:00:00 8,1 7,5 - - 0,0
20.10.2020 04:00:00 8,6 7,8 - - 0,0
20.10.2020 03:00:00 9,4 8,0 - - 0,4
20.10.2020 02:00:00 9,4 7,9 - - 0,0
20.10.2020 01:00:00 9,3 8,0 - - 0,0
20.10.2020 00:00:00 9,0 7,6 - - 0,2
19.10.2020 23:00:00 8,8 7,4 - - 0,0
19.10.2020 22:00:00 8,3 7,4 - - 0,4
19.10.2020 21:00:00 8,3 7,3 - - 0,4
19.10.2020 20:00:00 8,8 7,3 - - 0,6
19.10.2020 19:00:00 9,3 7,6 - - 0,4
19.10.2020 18:00:00 9,7 8,1 - - 0,6
19.10.2020 17:00:00 10,2 8,4 - - 0,2
19.10.2020 16:00:00 10,7 8,2 - - 0,0
19.10.2020 15:00:00 11,0 8,3 - - 0,0
19.10.2020 14:00:00 10,8 8,7 - - 0,0
19.10.2020 13:00:00 10,9 8,8 - - 0,2
19.10.2020 12:00:00 10,7 8,7 - - 0,0
19.10.2020 11:00:00 10,0 8,8 - - 0,0
19.10.2020 10:00:00 9,9 8,5 7,5 9,0 0,2
19.10.2020 09:00:00 9,1 8,2 - - 0,2
19.10.2020 08:00:00 7,3 7,1 - - 0,8
19.10.2020 07:00:00 6,9 6,5 - - 0,8
19.10.2020 06:00:00 7,4 6,4 - - 0,4
19.10.2020 05:00:00 7,5 5,9 - - 0,0
19.10.2020 04:00:00 7,3 5,6 - - 0,0
19.10.2020 03:00:00 7,7 5,5 - - 0,0
19.10.2020 02:00:00 7,3 5,5 - - 0,0
19.10.2020 01:00:00 6,9 5,9 - - 0,0
19.10.2020 00:00:00 5,0 4,7 - - 0,0
18.10.2020 23:00:00 5,3 4,9 - - 0,0
18.10.2020 22:00:00 5,5 5,1 - - 0,2
18.10.2020 21:00:00 5,5 4,9 - - 0,0
18.10.2020 20:00:00 5,6 4,7 - - 0,0
18.10.2020 19:00:00 5,8 4,4 - - 0,0
18.10.2020 18:00:00 6,3 4,1 - - 0,0
18.10.2020 17:00:00 6,9 3,5 - - 0,0
18.10.2020 16:00:00 7,1 2,9 - - 0,0
18.10.2020 15:00:00 7,0 3,0 - - 0,0
18.10.2020 14:00:00 6,5 2,3 - - 0,0
18.10.2020 13:00:00 5,6 2,2 - - 0,0
18.10.2020 12:00:00 4,5 2,2 - - 0,0
18.10.2020 11:00:00 2,2 2,1 - - 0,0
18.10.2020 10:00:00 0,9 0,8 7,5 9,2 0,0
18.10.2020 09:00:00 0,9 0,8 - - 0,0
18.10.2020 08:00:00 1,1 1,0 - - 0,0
18.10.2020 07:00:00 1,2 1,0 - - 0,2
18.10.2020 06:00:00 1,2 1,0 - - 0,2
18.10.2020 05:00:00 0,8 0,4 - - 0,0
18.10.2020 04:00:00 1,1 0,8 - - 0,0
18.10.2020 03:00:00 1,3 0,8 - - 0,0
18.10.2020 02:00:00 0,8 0,6 - - 0,0
18.10.2020 01:00:00 0,7 0,5 - - 0,0
18.10.2020 00:00:00 0,4 0,2 - - 0,0
17.10.2020 23:00:00 0,0 -0,4 - - 0,0
17.10.2020 22:00:00 0,6 0,0 - - 0,0
17.10.2020 21:00:00 1,9 0,8 - - 0,0
17.10.2020 20:00:00 3,9 1,7 - - 0,0
17.10.2020 19:00:00 5,7 2,5 - - 0,0
17.10.2020 18:00:00 6,5 3,3 - - 0,0
17.10.2020 17:00:00 7,0 4,4 - - 0,0
17.10.2020 16:00:00 7,7 4,7 - - 0,0
17.10.2020 15:00:00 8,9 4,5 - - 0,0
17.10.2020 14:00:00 9,2 4,0 - - 0,0
17.10.2020 13:00:00 8,8 4,3 - - 0,0
17.10.2020 12:00:00 6,8 4,0 - - 0,0
17.10.2020 11:00:00 5,0 3,2 - - 0,0
17.10.2020 10:00:00 1,6 1,0 8,0 9,2 0,0
17.10.2020 09:00:00 1,0 0,3 - - 0,0
17.10.2020 08:00:00 1,6 0,9 - - 0,0
17.10.2020 07:00:00 1,9 1,2 - - 0,0
17.10.2020 06:00:00 2,5 1,9 - - 0,0
17.10.2020 05:00:00 2,0 1,3 - - 0,0
17.10.2020 04:00:00 2,7 2,1 - - 0,0
17.10.2020 03:00:00 2,8 2,1 - - 0,0
17.10.2020 02:00:00 3,5 2,6 - - 0,0
17.10.2020 01:00:00 5,0 3,9 - - 0,0
17.10.2020 00:00:00 5,9 3,8 - - 0,0
16.10.2020 23:00:00 5,9 4,3 - - 0,0
16.10.2020 22:00:00 6,1 4,0 - - 0,0
16.10.2020 21:00:00 6,3 4,0 - - 0,0
16.10.2020 20:00:00 6,7 4,1 - - 0,0
16.10.2020 19:00:00 7,0 4,2 - - 0,0
16.10.2020 18:00:00 7,5 4,2 - - 0,0
16.10.2020 17:00:00 8,0 5,0 - - 0,0
16.10.2020 16:00:00 8,4 5,7 - - 0,0
16.10.2020 15:00:00 8,6 5,6 - - 0,0
16.10.2020 14:00:00 8,5 5,6 - - 0,0
16.10.2020 13:00:00 8,0 4,8 - - 0,0
16.10.2020 12:00:00 7,3 5,3 - - 0,0
16.10.2020 11:00:00 6,0 5,6 - - 0,0
16.10.2020 10:00:00 4,2 3,8 8,0 9,4 0,0
16.10.2020 09:00:00 3,4 3,1 - - 0,0
16.10.2020 08:00:00 2,8 2,2 - - 0,0
16.10.2020 07:00:00 3,3 2,8 - - 0,0
16.10.2020 06:00:00 3,6 3,2 - - 0,0
16.10.2020 05:00:00 3,8 3,3 - - 0,0
16.10.2020 04:00:00 3,7 3,2 - - 0,0
16.10.2020 03:00:00 4,4 3,9 - - 0,0
16.10.2020 02:00:00 4,7 3,7 - - 0,0
16.10.2020 01:00:00 4,6 3,4 - - 0,0
16.10.2020 00:00:00 4,6 2,8 - - 0,0
15.10.2020 23:00:00 5,0 3,0 - - 0,0
15.10.2020 22:00:00 5,0 2,8 - - 0,0
15.10.2020 21:00:00 5,1 2,5 - - 0,0
15.10.2020 20:00:00 5,5 2,3 - - 0,0
15.10.2020 19:00:00 5,5 2,2 - - 0,0
15.10.2020 18:00:00 6,1 1,5 - - 0,0
15.10.2020 17:00:00 6,6 1,9 - - 0,0
15.10.2020 16:00:00 6,8 1,7 - - 0,0
15.10.2020 15:00:00 7,0 2,2 - - 0,0
15.10.2020 14:00:00 7,0 2,2 - - 0,0
15.10.2020 13:00:00 6,6 3,1 - - 0,0
15.10.2020 12:00:00 6,7 2,7 - - 0,0
15.10.2020 11:00:00 6,4 2,5 - - 0,0
15.10.2020 10:00:00 5,1 3,3 - - 0,0
15.10.2020 09:00:00 4,6 3,2 - - 0,0
15.10.2020 08:00:00 4,4 3,0 - - 0,0
15.10.2020 07:00:00 4,3 3,2 - - 0,0
15.10.2020 06:00:00 4,6 3,2 - - 0,0
15.10.2020 05:00:00 4,7 3,0 - - 0,0
15.10.2020 04:00:00 4,7 3,0 - - 0,0
15.10.2020 03:00:00 5,3 2,8 - - 0,0
15.10.2020 02:00:00 5,5 2,7 - - 0,0
15.10.2020 01:00:00 5,8 2,0 - - 0,0
15.10.2020 00:00:00 6,1 2,5 - - 0,0
14.10.2020 23:00:00 6,3 2,1 - - 0,0
14.10.2020 22:00:00 6,2 3,5 - - 0,0
14.10.2020 21:00:00 7,1 4,3 - - 0,0
14.10.2020 20:00:00 7,4 5,0 - - 0,0
14.10.2020 19:00:00 7,4 4,5 - - 0,0
14.10.2020 18:00:00 8,2 4,8 - - 0,0
14.10.2020 17:00:00 9,7 5,2 - - 0,0
14.10.2020 16:00:00 9,8 5,0 - - 0,0

tt = temperature
td = dewpoint
tt -20cm = temperature -20cm
tt -100cm = temperature -100cm
rr = precipitation

Next stations